Location: Serpentine
(32.3617°S, 115.9768°E)
Time: 04:50:59
(UTC+08:00)

Envisat - Visible Passes

Search period start: 14 April 2021 00:00
Search period end: 24 April 2021 00:00
Orbit: 764 x 766 km, 98.1° (Epoch: 13 April)

Date Brightness Start Highest point End Pass type
(mag) Time Alt. Az. Time Alt. Az. Time Alt. Az.
14 Apr 5.5 04:02:05 10° ENE 04:05:38 19° ESE 04:09:12 10° SSE visible
14 Apr 3.4 05:39:31 10° NNW 05:44:17 40° W 05:49:07 10° SSW visible
15 Apr 3.0 05:02:21 10° NNE 05:07:26 83° ESE 05:12:36 10° S visible
15 Apr 5.8 18:56:18 10° SSW 18:59:46 19° WSW 19:03:13 10° WNW visible
16 Apr 4.6 04:26:13 10° NE 04:30:46 34° ESE 04:35:23 10° S visible
16 Apr 4.2 06:05:55 10° NW 06:09:47 22° W 06:13:42 10° SW visible
16 Apr 4.4 18:18:25 10° S 18:23:15 43° WSW 18:28:02 10° NW visible
17 Apr 5.8 03:51:30 10° E 03:54:19 15° ESE 03:57:08 10° SSE visible
17 Apr 3.1 05:27:51 10° N 05:32:49 53° W 05:37:50 10° SSW visible
18 Apr 3.4 04:51:00 10° NNE 04:56:01 64° ESE 05:01:07 10° S visible
18 Apr 5.4 18:44:24 10° SSW 18:48:26 24° WSW 18:52:26 10° WNW visible
19 Apr 5.0 04:15:12 10° NE 04:19:25 27° ESE 04:23:40 10° SSE visible
19 Apr 3.8 05:53:56 10° NNW 05:58:17 28° W 06:02:41 10° SW visible
20 Apr 6.0 03:41:26 10° E 03:43:01 11° ESE 03:44:36 10° SE visible
20 Apr 2.9 05:16:18 10° N 05:21:21 70° WNW 05:26:30 10° SSW visible
20 Apr 6.0 19:11:12 10° SW 19:13:31 13° WSW 19:15:49 10° W visible
21 Apr 3.9 04:39:44 10° NNE 04:44:38 48° ESE 04:49:34 10° S visible
21 Apr 5.0 18:32:38 10° S 18:37:05 30° WSW 18:41:29 10° NW visible
22 Apr 5.4 04:04:20 10° ENE 04:08:05 21° ESE 04:11:51 10° SSE visible
22 Apr 3.5 05:42:07 10° NNW 05:46:47 37° W 05:51:31 10° SSW visible
23 Apr 2.9 05:04:49 10° NNE 05:09:55 90° WNW 05:15:06 10° SSW visible
23 Apr 5.8 18:58:58 10° SSW 19:02:13 17° WSW 19:05:25 10° WNW visible
